contact:dominique.lefevre@mio.osupytheas.fr, maurice.libes@osupytheas.fr, didier.mallarino@osupytheas.fr
Project:EMSO http://www.emso-fr.org/EMSO-France
Depth: 2436.0 m
Title:EMSO Ligure Ouest : Data MII capteur MICROCAT
DateTime_Computer,Latitude,Longitude,Temperature,Conductivity,Pressure,DateTime_Instrument
DateTime_Computer,Latitude,Longitude,degC,S m-1,dbar,DateTime_Instrument
2023-09-09T00:02:15Z,42.805,6.029,13.3048,4.60138,2470.717,2023-9-09T02:04:36Z
2023-09-09T00:05:18Z,42.805,6.029,13.3040,4.60129,2470.74,2023-9-09T02:07:39Z
2023-09-09T00:08:21Z,42.805,6.029,13.3041,4.60131,2470.763,2023-9-09T02:10:42Z
2023-09-09T00:11:24Z,42.805,6.029,13.3043,4.60131,2470.763,2023-9-09T02:13:45Z
2023-09-09T00:14:27Z,42.805,6.029,13.3037,4.60127,2470.777,2023-9-09T02:16:48Z
2023-09-09T00:17:30Z,42.805,6.029,13.3037,4.60130,2470.777,2023-9-09T02:19:51Z
2023-09-09T00:20:33Z,42.805,6.029,13.3041,4.60127,2470.763,2023-9-09T02:22:54Z
2023-09-09T00:23:36Z,42.805,6.029,13.3039,4.60135,2470.777,2023-9-09T02:25:58Z
2023-09-09T00:26:39Z,42.805,6.029,13.3045,4.60131,2470.763,2023-9-09T02:29:01Z
2023-09-09T00:29:42Z,42.805,6.029,13.3043,4.60122,2470.754,2023-9-09T02:32:04Z
2023-09-09T00:32:45Z,42.805,6.029,13.3040,4.60124,2470.763,2023-9-09T02:35:07Z
2023-09-09T00:35:48Z,42.805,6.029,13.3036,4.60109,2470.763,2023-9-09T02:38:10Z
2023-09-09T00:38:51Z,42.805,6.029,13.3035,4.60137,2470.717,2023-9-09T02:41:13Z
2023-09-09T00:41:55Z,42.805,6.029,13.3037,4.60135,2470.754,2023-9-09T02:44:16Z
2023-09-09T00:44:58Z,42.805,6.029,13.3037,4.60126,2470.74,2023-9-09T02:47:19Z
2023-09-09T00:48:01Z,42.805,6.029,13.3046,4.60122,2470.754,2023-9-09T02:50:22Z
2023-09-09T00:51:04Z,42.805,6.029,13.3043,4.60130,2470.763,2023-9-09T02:53:25Z
2023-09-09T00:54:07Z,42.805,6.029,13.3034,4.60132,2470.717,2023-9-09T02:56:28Z
2023-09-09T00:57:10Z,42.805,6.029,13.3048,4.60136,2470.763,2023-9-09T02:59:31Z
2023-09-09T01:00:13Z,42.805,6.029,13.3046,4.60133,2470.754,2023-9-09T03:02:34Z
2023-09-09T01:03:16Z,42.805,6.029,13.3047,4.60145,2470.763,2023-9-09T03:05:37Z
2023-09-09T01:06:19Z,42.805,6.029,13.3043,4.60125,2470.74,2023-9-09T03:08:41Z
2023-09-09T01:09:22Z,42.805,6.029,13.3043,4.60125,2470.777,2023-9-09T03:11:44Z
2023-09-09T01:12:25Z,42.805,6.029,13.3041,4.60117,2470.754,2023-9-09T03:14:47Z
2023-09-09T01:15:28Z,42.805,6.029,13.3041,4.60134,2470.763,2023-9-09T03:17:50Z
2023-09-09T01:18:31Z,42.805,6.029,13.3039,4.60129,2470.74,2023-9-09T03:20:53Z
2023-09-09T01:21:34Z,42.805,6.029,13.3036,4.60123,2470.763,2023-9-09T03:23:56Z
2023-09-09T01:24:38Z,42.805,6.029,13.3039,4.60116,2470.717,2023-9-09T03:26:59Z
2023-09-09T01:27:41Z,42.805,6.029,13.3034,4.60110,2470.74,2023-9-09T03:30:02Z
2023-09-09T01:30:44Z,42.805,6.029,13.3031,4.60117,2470.74,2023-9-09T03:33:05Z
2023-09-09T01:33:47Z,42.805,6.029,13.3032,4.60106,2470.754,2023-9-09T03:36:08Z
2023-09-09T01:36:50Z,42.805,6.029,13.3031,4.60118,2470.754,2023-9-09T03:39:11Z
2023-09-09T01:39:53Z,42.805,6.029,13.3037,4.60115,2470.763,2023-9-09T03:42:14Z
2023-09-09T01:42:56Z,42.805,6.029,13.3041,4.60119,2470.763,2023-9-09T03:45:17Z
2023-09-09T01:45:59Z,42.805,6.029,13.3036,4.60122,2470.754,2023-9-09T03:48:21Z
2023-09-09T01:49:02Z,42.805,6.029,13.3033,4.60112,2470.763,2023-9-09T03:51:24Z
2023-09-09T01:52:05Z,42.805,6.029,13.3036,4.60127,2470.754,2023-9-09T03:54:27Z
2023-09-09T01:55:08Z,42.805,6.029,13.3035,4.60113,2470.74,2023-9-09T03:57:30Z
2023-09-09T01:58:11Z,42.805,6.029,13.3041,4.60114,2470.74,2023-9-09T04:00:33Z
2023-09-09T02:01:15Z,42.805,6.029,13.3037,4.60115,2470.763,2023-9-09T04:03:36Z
2023-09-09T02:04:18Z,42.805,6.029,13.3037,4.60129,2470.73,2023-9-09T04:06:39Z
2023-09-09T02:07:21Z,42.805,6.029,13.3039,4.60123,2470.74,2023-9-09T04:09:42Z
2023-09-09T02:10:24Z,42.805,6.029,13.3033,4.60104,2470.763,2023-9-09T04:12:45Z
2023-09-09T02:13:27Z,42.805,6.029,13.3036,4.60123,2470.73,2023-9-09T04:15:48Z
2023-09-09T02:16:30Z,42.805,6.029,13.3039,4.60117,2470.763,2023-9-09T04:18:51Z
2023-09-09T02:19:33Z,42.805,6.029,13.3039,4.60121,2470.74,2023-9-09T04:21:54Z
2023-09-09T02:22:36Z,42.805,6.029,13.3035,4.60116,2470.763,2023-9-09T04:24:57Z
2023-09-09T02:25:39Z,42.805,6.029,13.3038,4.60119,2470.787,2023-9-09T04:28:01Z
2023-09-09T02:28:42Z,42.805,6.029,13.3038,4.60117,2470.763,2023-9-09T04:31:04Z
2023-09-09T02:31:45Z,42.805,6.029,13.3046,4.60113,2470.754,2023-9-09T04:34:07Z
2023-09-09T02:34:48Z,42.805,6.029,13.3036,4.60117,2470.763,2023-9-09T04:37:10Z
2023-09-09T02:37:51Z,42.805,6.029,13.3036,4.60114,2470.763,2023-9-09T04:40:13Z
2023-09-09T02:40:54Z,42.805,6.029,13.3034,4.60121,2470.777,2023-9-09T04:43:16Z
2023-09-09T02:43:58Z,42.805,6.029,13.3036,4.60118,2470.74,2023-9-09T04:46:19Z
2023-09-09T02:47:01Z,42.805,6.029,13.3035,4.60113,2470.777,2023-9-09T04:49:22Z
2023-09-09T02:50:04Z,42.805,6.029,13.3036,4.60110,2470.777,2023-9-09T04:52:25Z
2023-09-09T02:53:07Z,42.805,6.029,13.3036,4.60119,2470.763,2023-9-09T04:55:28Z
2023-09-09T02:56:10Z,42.805,6.029,13.3034,4.60114,2470.777,2023-9-09T04:58:31Z
2023-09-09T02:59:13Z,42.805,6.029,13.3034,4.60117,2470.754,2023-9-09T05:01:34Z
2023-09-09T03:02:16Z,42.805,6.029,13.3034,4.60110,2470.777,2023-9-09T05:04:37Z
2023-09-09T03:05:19Z,42.805,6.029,13.3031,4.60114,2470.73,2023-9-09T05:07:41Z
2023-09-09T03:08:22Z,42.805,6.029,13.3037,4.60114,2470.763,2023-9-09T05:10:44Z
2023-09-09T03:11:25Z,42.805,6.029,13.3036,4.60112,2470.777,2023-9-09T05:13:47Z
2023-09-09T03:14:28Z,42.805,6.029,13.3034,4.60126,2470.787,2023-9-09T05:16:50Z
2023-09-09T03:17:31Z,42.805,6.029,13.3034,4.60113,2470.763,2023-9-09T05:19:53Z
2023-09-09T03:20:35Z,42.805,6.029,13.3039,4.60118,2470.74,2023-9-09T05:22:56Z
2023-09-09T03:23:38Z,42.805,6.029,13.3036,4.60117,2470.763,2023-9-09T05:25:59Z
2023-09-09T03:26:41Z,42.805,6.029,13.3039,4.60129,2470.717,2023-9-09T05:29:02Z
2023-09-09T03:29:44Z,42.805,6.029,13.3035,4.60111,2470.754,2023-9-09T05:32:05Z
2023-09-09T03:32:47Z,42.805,6.029,13.3035,4.60111,2470.754,2023-9-09T05:35:08Z
2023-09-09T03:35:50Z,42.805,6.029,13.3034,4.60117,2470.74,2023-9-09T05:38:11Z
2023-09-09T03:38:53Z,42.805,6.029,13.3036,4.60114,2470.777,2023-9-09T05:41:14Z
2023-09-09T03:41:56Z,42.805,6.029,13.3041,4.60114,2470.74,2023-9-09T05:44:17Z
2023-09-09T03:44:59Z,42.805,6.029,13.3040,4.60114,2470.754,2023-9-09T05:47:21Z
2023-09-09T03:48:02Z,42.805,6.029,13.3030,4.60105,2470.777,2023-9-09T05:50:24Z
2023-09-09T03:51:05Z,42.805,6.029,13.3032,4.60115,2470.763,2023-9-09T05:53:27Z
2023-09-09T03:54:08Z,42.805,6.029,13.3035,4.60114,2470.777,2023-9-09T05:56:30Z
2023-09-09T03:57:11Z,42.805,6.029,13.3039,4.60115,2470.777,2023-9-09T05:59:33Z
2023-09-09T04:00:14Z,42.805,6.029,13.3029,4.60098,2470.763,2023-9-09T06:02:36Z
2023-09-09T04:03:18Z,42.805,6.029,13.3034,4.60107,2470.74,2023-9-09T06:05:39Z
2023-09-09T04:06:21Z,42.805,6.029,13.3033,4.60109,2470.754,2023-9-09T06:08:42Z
2023-09-09T04:09:24Z,42.805,6.029,13.3034,4.60115,2470.763,2023-9-09T06:11:45Z
2023-09-09T04:12:27Z,42.805,6.029,13.3032,4.60108,2470.763,2023-9-09T06:14:48Z
2023-09-09T04:15:30Z,42.805,6.029,13.3031,4.60110,2470.74,2023-9-09T06:17:51Z
2023-09-09T04:18:33Z,42.805,6.029,13.3033,4.60117,2470.763,2023-9-09T06:20:54Z
2023-09-09T04:21:36Z,42.805,6.029,13.3038,4.60114,2470.74,2023-9-09T06:23:57Z
2023-09-09T04:24:39Z,42.805,6.029,13.3032,4.60104,2470.74,2023-9-09T06:27:01Z
2023-09-09T04:27:42Z,42.805,6.029,13.3033,4.60110,2470.763,2023-9-09T06:30:04Z
2023-09-09T04:30:45Z,42.805,6.029,13.3036,4.60107,2470.763,2023-9-09T06:33:07Z
2023-09-09T04:33:48Z,42.805,6.029,13.3030,4.60103,2470.74,2023-9-09T06:36:10Z
2023-09-09T04:36:51Z,42.805,6.029,13.3037,4.60104,2470.787,2023-9-09T06:39:13Z
2023-09-09T04:39:54Z,42.805,6.029,13.3034,4.60103,2470.74,2023-9-09T06:42:16Z
2023-09-09T04:42:58Z,42.805,6.029,13.3029,4.60102,2470.763,2023-9-09T06:45:19Z
2023-09-09T04:46:01Z,42.805,6.029,13.3036,4.60116,2470.754,2023-9-09T06:48:22Z
2023-09-09T04:49:04Z,42.805,6.029,13.3031,4.60112,2470.777,2023-9-09T06:51:25Z
2023-09-09T04:52:07Z,42.805,6.029,13.3036,4.60109,2470.74,2023-9-09T06:54:28Z
2023-09-09T04:55:10Z,42.805,6.029,13.3038,4.60111,2470.74,2023-9-09T06:57:31Z
2023-09-09T04:58:13Z,42.805,6.029,13.3035,4.60114,2470.754,2023-9-09T07:00:34Z
2023-09-09T05:01:16Z,42.805,6.029,13.3032,4.60112,2470.8,2023-9-09T07:03:37Z
2023-09-09T05:04:19Z,42.805,6.029,13.3031,4.60110,2470.74,2023-9-09T07:06:41Z
2023-09-09T05:07:22Z,42.805,6.029,13.3036,4.60110,2470.74,2023-9-09T07:09:44Z
2023-09-09T05:10:25Z,42.805,6.029,13.3028,4.60107,2470.777,2023-9-09T07:12:47Z
2023-09-09T05:13:28Z,42.805,6.029,13.3036,4.60122,2470.763,2023-9-09T07:15:50Z
2023-09-09T05:16:31Z,42.805,6.029,13.3041,4.60110,2470.777,2023-9-09T07:18:53Z
2023-09-09T05:19:34Z,42.805,6.029,13.3035,4.60107,2470.73,2023-9-09T07:21:56Z
2023-09-09T05:22:38Z,42.805,6.029,13.3041,4.60122,2470.717,2023-9-09T07:24:59Z
2023-09-09T05:25:41Z,42.805,6.029,13.3034,4.60116,2470.74,2023-9-09T07:28:02Z
2023-09-09T05:28:44Z,42.805,6.029,13.3033,4.60116,2470.74,2023-9-09T07:31:05Z
2023-09-09T05:31:47Z,42.805,6.029,13.3034,4.60109,2470.74,2023-9-09T07:34:08Z
2023-09-09T05:34:50Z,42.805,6.029,13.3032,4.60102,2470.763,2023-9-09T07:37:11Z
2023-09-09T05:37:53Z,42.805,6.029,13.3033,4.60099,2470.74,2023-9-09T07:40:14Z
2023-09-09T05:40:56Z,42.805,6.029,13.3031,4.60102,2470.754,2023-9-09T07:43:17Z
2023-09-09T05:43:59Z,42.805,6.029,13.3040,4.60118,2470.717,2023-9-09T07:46:21Z
2023-09-09T05:47:02Z,42.805,6.029,13.3031,4.60110,2470.717,2023-9-09T07:49:24Z
2023-09-09T05:50:05Z,42.805,6.029,13.3039,4.60122,2470.754,2023-9-09T07:52:27Z
2023-09-09T05:53:08Z,42.805,6.029,13.3038,4.60114,2470.73,2023-9-09T07:55:30Z
2023-09-09T05:56:11Z,42.805,6.029,13.3034,4.60128,2470.74,2023-9-09T07:58:33Z
2023-09-09T05:59:14Z,42.805,6.029,13.3036,4.60114,2470.74,2023-9-09T08:01:36Z
2023-09-09T06:02:18Z,42.805,6.029,13.3034,4.60112,2470.717,2023-9-09T08:04:39Z
2023-09-09T06:05:21Z,42.805,6.029,13.3034,4.60109,2470.717,2023-9-09T08:07:42Z
2023-09-09T06:08:24Z,42.805,6.029,13.3032,4.60112,2470.74,2023-9-09T08:10:45Z
2023-09-09T06:11:27Z,42.805,6.029,13.3036,4.60110,2470.754,2023-9-09T08:13:48Z
2023-09-09T06:14:30Z,42.805,6.029,13.3037,4.60109,2470.74,2023-9-09T08:16:51Z
2023-09-09T06:17:33Z,42.805,6.029,13.3032,4.60110,2470.717,2023-9-09T08:19:54Z
2023-09-09T06:20:36Z,42.805,6.029,13.3031,4.60111,2470.777,2023-9-09T08:22:57Z
2023-09-09T06:23:39Z,42.805,6.029,13.3038,4.60110,2470.73,2023-9-09T08:26:01Z
2023-09-09T06:26:42Z,42.805,6.029,13.3031,4.60116,2470.717,2023-9-09T08:29:04Z
2023-09-09T06:29:45Z,42.805,6.029,13.3034,4.60108,2470.73,2023-9-09T08:32:07Z
2023-09-09T06:32:48Z,42.805,6.029,13.3031,4.60114,2470.754,2023-9-09T08:35:10Z
2023-09-09T06:35:51Z,42.805,6.029,13.3036,4.60111,2470.74,2023-9-09T08:38:13Z
2023-09-09T06:38:54Z,42.805,6.029,13.3042,4.60112,2470.754,2023-9-09T08:41:16Z
2023-09-09T06:41:58Z,42.805,6.029,13.3039,4.60114,2470.693,2023-9-09T08:44:19Z
2023-09-09T06:45:01Z,42.805,6.029,13.3034,4.60105,2470.754,2023-9-09T08:47:22Z
2023-09-09T06:48:04Z,42.805,6.029,13.3036,4.60106,2470.717,2023-9-09T08:50:25Z
2023-09-09T06:51:07Z,42.805,6.029,13.3034,4.60108,2470.74,2023-9-09T08:53:28Z
2023-09-09T06:54:10Z,42.805,6.029,13.3039,4.60114,2470.693,2023-9-09T08:56:31Z
2023-09-09T06:57:13Z,42.805,6.029,13.3038,4.60107,2470.74,2023-9-09T08:59:34Z
2023-09-09T07:00:16Z,42.805,6.029,13.3033,4.60107,2470.763,2023-9-09T09:02:37Z
2023-09-09T07:03:19Z,42.805,6.029,13.3032,4.60107,2470.74,2023-9-09T09:05:40Z
2023-09-09T07:06:22Z,42.805,6.029,13.3033,4.60114,2470.74,2023-9-09T09:08:44Z
2023-09-09T07:09:25Z,42.805,6.029,13.3034,4.60114,2470.777,2023-9-09T09:11:47Z
2023-09-09T07:12:28Z,42.805,6.029,13.3040,4.60116,2470.726,2023-9-09T09:14:50Z
2023-09-09T07:15:31Z,42.805,6.029,13.3032,4.60120,2470.74,2023-9-09T09:17:53Z
2023-09-09T07:18:34Z,42.805,6.029,13.3035,4.60108,2470.693,2023-9-09T09:20:56Z
2023-09-09T07:21:38Z,42.805,6.029,13.3036,4.60104,2470.73,2023-9-09T09:23:59Z
2023-09-09T07:24:41Z,42.805,6.029,13.3033,4.60110,2470.693,2023-9-09T09:27:02Z
2023-09-09T07:27:44Z,42.805,6.029,13.3042,4.60124,2470.717,2023-9-09T09:30:05Z
2023-09-09T07:30:47Z,42.805,6.029,13.3037,4.60116,2470.707,2023-9-09T09:33:08Z
2023-09-09T07:33:50Z,42.805,6.029,13.3040,4.60101,2470.717,2023-9-09T09:36:11Z
2023-09-09T07:36:53Z,42.805,6.029,13.3033,4.60112,2470.717,2023-9-09T09:39:14Z
2023-09-09T07:39:56Z,42.805,6.029,13.3034,4.60118,2470.73,2023-9-09T09:42:17Z
2023-09-09T07:42:59Z,42.805,6.029,13.3035,4.60115,2470.74,2023-9-09T09:45:20Z
2023-09-09T07:46:02Z,42.805,6.029,13.3037,4.60117,2470.717,2023-9-09T09:48:24Z
2023-09-09T07:49:05Z,42.805,6.029,13.3034,4.60114,2470.717,2023-9-09T09:51:27Z
2023-09-09T07:52:08Z,42.805,6.029,13.3036,4.60107,2470.717,2023-9-09T09:54:30Z
2023-09-09T07:55:11Z,42.805,6.029,13.3039,4.60119,2470.754,2023-9-09T09:57:33Z
2023-09-09T07:58:14Z,42.805,6.029,13.3035,4.60117,2470.73,2023-9-09T10:00:36Z
2023-09-09T08:01:17Z,42.805,6.029,13.3034,4.60122,2470.717,2023-9-09T10:03:39Z
2023-09-09T08:04:21Z,42.805,6.029,13.3040,4.60107,2470.693,2023-9-09T10:06:42Z
2023-09-09T08:07:24Z,42.805,6.029,13.3038,4.60114,2470.74,2023-9-09T10:09:45Z
2023-09-09T08:10:27Z,42.805,6.029,13.3033,4.60112,2470.703,2023-9-09T10:12:48Z
2023-09-09T08:13:30Z,42.805,6.029,13.3038,4.60111,2470.707,2023-9-09T10:15:51Z
2023-09-09T08:16:33Z,42.805,6.029,13.3036,4.60108,2470.717,2023-9-09T10:18:54Z
2023-09-09T08:19:36Z,42.805,6.029,13.3039,4.60123,2470.73,2023-9-09T10:21:57Z
2023-09-09T08:22:39Z,42.805,6.029,13.3038,4.60123,2470.707,2023-9-09T10:25:00Z
2023-09-09T08:25:42Z,42.805,6.029,13.3033,4.60119,2470.693,2023-9-09T10:28:04Z
2023-09-09T08:28:45Z,42.805,6.029,13.3038,4.60121,2470.73,2023-9-09T10:31:07Z
2023-09-09T08:31:48Z,42.805,6.029,13.3041,4.60122,2470.754,2023-9-09T10:34:10Z
2023-09-09T08:34:51Z,42.805,6.029,13.3036,4.60119,2470.717,2023-9-09T10:37:13Z
2023-09-09T08:37:54Z,42.805,6.029,13.3035,4.60115,2470.717,2023-9-09T10:40:16Z
2023-09-09T08:40:58Z,42.805,6.029,13.3041,4.60121,2470.707,2023-9-09T10:43:19Z
2023-09-09T08:44:01Z,42.805,6.029,13.3039,4.60114,2470.707,2023-9-09T10:46:22Z
2023-09-09T08:47:04Z,42.805,6.029,13.3041,4.60124,2470.693,2023-9-09T10:49:25Z
2023-09-09T08:50:07Z,42.805,6.029,13.3036,4.60114,2470.707,2023-9-09T10:52:28Z
2023-09-09T08:53:10Z,42.805,6.029,13.3041,4.60116,2470.693,2023-9-09T10:55:31Z
2023-09-09T08:56:13Z,42.805,6.029,13.3040,4.60125,2470.717,2023-9-09T10:58:34Z
2023-09-09T08:59:16Z,42.805,6.029,13.3037,4.60135,2470.717,2023-9-09T11:01:38Z
2023-09-09T09:02:19Z,42.805,6.029,13.3038,4.60130,2470.67,2023-9-09T11:04:41Z
2023-09-09T09:05:22Z,42.805,6.029,13.3040,4.60121,2470.707,2023-9-09T11:07:44Z
2023-09-09T09:08:25Z,42.805,6.029,13.3050,4.60130,2470.73,2023-9-09T11:10:47Z
2023-09-09T09:11:28Z,42.805,6.029,13.3044,4.60118,2470.684,2023-9-09T11:13:50Z
2023-09-09T09:14:31Z,42.805,6.029,13.3042,4.60122,2470.73,2023-9-09T11:16:53Z
2023-09-09T09:17:35Z,42.805,6.029,13.3036,4.60113,2470.717,2023-9-09T11:19:56Z
2023-09-09T09:20:38Z,42.805,6.029,13.3041,4.60115,2470.717,2023-9-09T11:22:59Z
2023-09-09T09:23:41Z,42.805,6.029,13.3034,4.60117,2470.693,2023-9-09T11:26:02Z
2023-09-09T09:26:44Z,42.805,6.029,13.3046,4.60108,2470.74,2023-9-09T11:29:05Z
2023-09-09T09:29:47Z,42.805,6.029,13.3038,4.60113,2470.73,2023-9-09T11:32:08Z
2023-09-09T09:32:50Z,42.805,6.029,13.3041,4.60123,2470.73,2023-9-09T11:35:11Z
2023-09-09T09:35:53Z,42.805,6.029,13.3041,4.60120,2470.73,2023-9-09T11:38:14Z
2023-09-09T09:38:56Z,42.805,6.029,13.3038,4.60118,2470.693,2023-9-09T11:41:18Z
2023-09-09T09:41:59Z,42.805,6.029,13.3039,4.60110,2470.717,2023-9-09T11:44:21Z
2023-09-09T09:45:02Z,42.805,6.029,13.3043,4.60116,2470.707,2023-9-09T11:47:24Z
2023-09-09T09:48:05Z,42.805,6.029,13.3041,4.60119,2470.717,2023-9-09T11:50:27Z
2023-09-09T09:51:08Z,42.805,6.029,13.3037,4.60118,2470.73,2023-9-09T11:53:30Z
2023-09-09T09:54:11Z,42.805,6.029,13.3039,4.60114,2470.684,2023-9-09T11:56:33Z
2023-09-09T09:57:15Z,42.805,6.029,13.3043,4.60120,2470.74,2023-9-09T11:59:36Z
2023-09-09T10:00:18Z,42.805,6.029,13.3042,4.60119,2470.73,2023-9-09T12:02:39Z
2023-09-09T10:03:21Z,42.805,6.029,13.3039,4.60112,2470.74,2023-9-09T12:05:42Z
2023-09-09T10:06:24Z,42.805,6.029,13.3045,4.60112,2470.693,2023-9-09T12:08:45Z
2023-09-09T10:09:27Z,42.805,6.029,13.3040,4.60125,2470.707,2023-9-09T12:11:48Z
2023-09-09T10:12:30Z,42.805,6.029,13.3040,4.60127,2470.693,2023-9-09T12:14:51Z
2023-09-09T10:15:33Z,42.805,6.029,13.3039,4.60138,2470.717,2023-9-09T12:17:55Z
2023-09-09T10:18:36Z,42.805,6.029,13.3056,4.60139,2470.73,2023-9-09T12:20:58Z
2023-09-09T10:21:39Z,42.805,6.029,13.3054,4.60118,2470.717,2023-9-09T12:24:01Z
2023-09-09T10:24:42Z,42.805,6.029,13.3036,4.60116,2470.717,2023-9-09T12:27:04Z
2023-09-09T10:27:45Z,42.805,6.029,13.3041,4.60125,2470.73,2023-9-09T12:30:07Z
2023-09-09T10:30:50Z,42.805,6.029,13.3040,4.60119,2470.717,2023-9-09T12:33:12Z
2023-09-09T10:33:53Z,42.805,6.029,13.3034,4.60110,2470.74,2023-9-09T12:36:15Z
2023-09-09T10:36:56Z,42.805,6.029,13.3042,4.60123,2470.717,2023-9-09T12:39:18Z
2023-09-09T10:39:59Z,42.805,6.029,13.3043,4.60122,2470.73,2023-9-09T12:42:21Z
2023-09-09T10:43:02Z,42.805,6.029,13.3043,4.60118,2470.717,2023-9-09T12:45:24Z
2023-09-09T10:46:05Z,42.805,6.029,13.3041,4.60119,2470.73,2023-9-09T12:48:27Z
2023-09-09T10:49:09Z,42.805,6.029,13.3038,4.60117,2470.74,2023-9-09T12:51:30Z
2023-09-09T10:52:12Z,42.805,6.029,13.3041,4.60122,2470.717,2023-9-09T12:54:33Z
2023-09-09T10:55:15Z,42.805,6.029,13.3042,4.60113,2470.744,2023-9-09T12:57:36Z
2023-09-09T10:58:18Z,42.805,6.029,13.3043,4.60117,2470.684,2023-9-09T13:00:39Z
2023-09-09T11:01:21Z,42.805,6.029,13.3041,4.60122,2470.73,2023-9-09T13:03:42Z
2023-09-09T11:04:24Z,42.805,6.029,13.3043,4.60142,2470.73,2023-9-09T13:06:45Z
2023-09-09T11:07:27Z,42.805,6.029,13.3043,4.60126,2470.74,2023-9-09T13:09:49Z
2023-09-09T11:10:30Z,42.805,6.029,13.3046,4.60132,2470.717,2023-9-09T13:12:52Z
2023-09-09T11:13:33Z,42.805,6.029,13.3041,4.60119,2470.74,2023-9-09T13:15:55Z
2023-09-09T11:16:36Z,42.805,6.029,13.3042,4.60125,2470.717,2023-9-09T13:18:58Z
2023-09-09T11:19:39Z,42.805,6.029,13.3040,4.60121,2470.73,2023-9-09T13:22:01Z
2023-09-09T11:22:42Z,42.805,6.029,13.3043,4.60129,2470.73,2023-9-09T13:25:04Z
2023-09-09T11:25:46Z,42.805,6.029,13.3041,4.60121,2470.754,2023-9-09T13:28:07Z
2023-09-09T11:28:49Z,42.805,6.029,13.3043,4.60125,2470.73,2023-9-09T13:31:10Z
2023-09-09T11:31:52Z,42.805,6.029,13.3039,4.60107,2470.73,2023-9-09T13:34:13Z
2023-09-09T11:34:55Z,42.805,6.029,13.3041,4.60126,2470.717,2023-9-09T13:37:16Z
2023-09-09T11:37:58Z,42.805,6.029,13.3036,4.60128,2470.754,2023-9-09T13:40:19Z
2023-09-09T11:41:01Z,42.805,6.029,13.3039,4.60121,2470.717,2023-9-09T13:43:22Z
2023-09-09T11:44:04Z,42.805,6.029,13.3043,4.60140,2470.74,2023-9-09T13:46:25Z
2023-09-09T11:47:07Z,42.805,6.029,13.3043,4.60138,2470.74,2023-9-09T13:49:29Z
2023-09-09T11:50:10Z,42.805,6.029,13.3045,4.60147,2470.717,2023-9-09T13:52:32Z
2023-09-09T11:53:13Z,42.805,6.029,13.3039,4.60129,2470.74,2023-9-09T13:55:35Z
2023-09-09T11:56:16Z,42.805,6.029,13.3043,4.60128,2470.717,2023-9-09T13:58:38Z
2023-09-09T11:59:19Z,42.805,6.029,13.3041,4.60140,2470.763,2023-9-09T14:01:41Z
2023-09-09T12:02:23Z,42.805,6.029,13.3044,4.60125,2470.73,2023-9-09T14:04:44Z
2023-09-09T12:05:26Z,42.805,6.029,13.3040,4.60130,2470.754,2023-9-09T14:07:47Z
2023-09-09T12:08:29Z,42.805,6.029,13.3041,4.60128,2470.763,2023-9-09T14:10:50Z
2023-09-09T12:11:32Z,42.805,6.029,13.3035,4.60124,2470.74,2023-9-09T14:13:53Z
2023-09-09T12:14:35Z,42.805,6.029,13.3043,4.60128,2470.787,2023-9-09T14:16:56Z
2023-09-09T12:17:38Z,42.805,6.029,13.3050,4.60150,2470.777,2023-9-09T14:19:59Z
2023-09-09T12:20:41Z,42.805,6.029,13.3037,4.60145,2470.763,2023-9-09T14:23:02Z
2023-09-09T12:23:44Z,42.805,6.029,13.3039,4.60120,2470.754,2023-9-09T14:26:06Z
2023-09-09T12:26:47Z,42.805,6.029,13.3038,4.60139,2470.763,2023-9-09T14:29:09Z
2023-09-09T12:29:50Z,42.805,6.029,13.3044,4.60135,2470.74,2023-9-09T14:32:12Z
2023-09-09T12:32:53Z,42.805,6.029,13.3035,4.60123,2470.717,2023-9-09T14:35:15Z
2023-09-09T12:35:56Z,42.805,6.029,13.3039,4.60132,2470.754,2023-9-09T14:38:18Z
2023-09-09T12:39:00Z,42.805,6.029,13.3037,4.60129,2470.754,2023-9-09T14:41:21Z
2023-09-09T12:42:03Z,42.805,6.029,13.3034,4.60118,2470.763,2023-9-09T14:44:24Z
2023-09-09T12:45:06Z,42.805,6.029,13.3039,4.60127,2470.763,2023-9-09T14:47:27Z
2023-09-09T12:48:09Z,42.805,6.029,13.3043,4.60114,2470.74,2023-9-09T14:50:30Z
2023-09-09T12:51:12Z,42.805,6.029,13.3048,4.60111,2470.754,2023-9-09T14:53:33Z
2023-09-09T12:54:15Z,42.805,6.029,13.3031,4.60121,2470.787,2023-9-09T14:56:36Z
2023-09-09T12:57:18Z,42.805,6.029,13.3039,4.60132,2470.8,2023-9-09T14:59:39Z
2023-09-09T13:00:21Z,42.805,6.029,13.3033,4.60117,2470.74,2023-9-09T15:02:43Z
2023-09-09T13:03:24Z,42.805,6.029,13.3033,4.60110,2470.777,2023-9-09T15:05:46Z
2023-09-09T13:06:27Z,42.805,6.029,13.3039,4.60120,2470.787,2023-9-09T15:08:49Z
2023-09-09T13:09:30Z,42.805,6.029,13.3047,4.60135,2470.754,2023-9-09T15:11:52Z
2023-09-09T13:12:33Z,42.805,6.029,13.3048,4.60152,2470.763,2023-9-09T15:14:55Z
2023-09-09T13:15:37Z,42.805,6.029,13.3052,4.60132,2470.763,2023-9-09T15:17:58Z
2023-09-09T13:18:40Z,42.805,6.029,13.3048,4.60126,2470.787,2023-9-09T15:21:01Z
2023-09-09T13:21:43Z,42.805,6.029,13.3036,4.60114,2470.763,2023-9-09T15:24:04Z
2023-09-09T13:24:46Z,42.805,6.029,13.3046,4.60127,2470.787,2023-9-09T15:27:07Z
2023-09-09T13:27:49Z,42.805,6.029,13.3043,4.60129,2470.8,2023-9-09T15:30:10Z
2023-09-09T13:30:52Z,42.805,6.029,13.3045,4.60125,2470.763,2023-9-09T15:33:13Z
2023-09-09T13:33:55Z,42.805,6.029,13.3043,4.60135,2470.8,2023-9-09T15:36:16Z
2023-09-09T13:36:58Z,42.805,6.029,13.3036,4.60121,2470.763,2023-9-09T15:39:20Z
2023-09-09T13:40:01Z,42.805,6.029,13.3041,4.60142,2470.787,2023-9-09T15:42:23Z
2023-09-09T13:43:04Z,42.805,6.029,13.3044,4.60127,2470.787,2023-9-09T15:45:26Z
2023-09-09T13:46:07Z,42.805,6.029,13.3049,4.60121,2470.824,2023-9-09T15:48:29Z
2023-09-09T13:49:10Z,42.805,6.029,13.3044,4.60117,2470.8,2023-9-09T15:51:32Z
2023-09-09T13:52:14Z,42.805,6.029,13.3036,4.60130,2470.773,2023-9-09T15:54:35Z
2023-09-09T13:55:17Z,42.805,6.029,13.3043,4.60140,2470.8,2023-9-09T15:57:38Z
2023-09-09T13:58:20Z,42.805,6.029,13.3040,4.60112,2470.8,2023-9-09T16:00:41Z
2023-09-09T14:01:23Z,42.805,6.029,13.3039,4.60121,2470.824,2023-9-09T16:03:44Z
2023-09-09T14:04:26Z,42.805,6.029,13.3041,4.60117,2470.81,2023-9-09T16:06:47Z
2023-09-09T14:07:29Z,42.805,6.029,13.3034,4.60112,2470.787,2023-9-09T16:09:50Z
2023-09-09T14:10:32Z,42.805,6.029,13.3034,4.60125,2470.81,2023-9-09T16:12:54Z
2023-09-09T14:13:35Z,42.805,6.029,13.3036,4.60117,2470.787,2023-9-09T16:15:57Z
2023-09-09T14:16:38Z,42.805,6.029,13.3038,4.60114,2470.787,2023-9-09T16:19:00Z
2023-09-09T14:19:41Z,42.805,6.029,13.3047,4.60140,2470.787,2023-9-09T16:22:03Z
2023-09-09T14:22:44Z,42.805,6.029,13.3041,4.60132,2470.81,2023-9-09T16:25:06Z
2023-09-09T14:25:47Z,42.805,6.029,13.3040,4.60132,2470.824,2023-9-09T16:28:09Z
2023-09-09T14:28:51Z,42.805,6.029,13.3035,4.60134,2470.773,2023-9-09T16:31:12Z
2023-09-09T14:31:54Z,42.805,6.029,13.3038,4.60127,2470.81,2023-9-09T16:34:15Z
2023-09-09T14:34:57Z,42.805,6.029,13.3044,4.60133,2470.847,2023-9-09T16:37:18Z
2023-09-09T14:38:00Z,42.805,6.029,13.3048,4.60143,2470.787,2023-9-09T16:40:21Z
2023-09-09T14:41:03Z,42.805,6.029,13.3046,4.60137,2470.847,2023-9-09T16:43:24Z
2023-09-09T14:44:06Z,42.805,6.029,13.3046,4.60128,2470.857,2023-9-09T16:46:27Z
2023-09-09T14:47:09Z,42.805,6.029,13.3046,4.60128,2470.824,2023-9-09T16:49:30Z
2023-09-09T14:50:12Z,42.805,6.029,13.3037,4.60152,2470.847,2023-9-09T16:52:34Z
2023-09-09T14:53:15Z,42.805,6.029,13.3043,4.60142,2470.857,2023-9-09T16:55:37Z
2023-09-09T14:56:18Z,42.805,6.029,13.3048,4.60144,2470.833,2023-9-09T16:58:40Z
2023-09-09T14:59:21Z,42.805,6.029,13.3054,4.60155,2470.787,2023-9-09T17:01:43Z
2023-09-09T15:02:24Z,42.805,6.029,13.3051,4.60147,2470.81,2023-9-09T17:04:46Z
2023-09-09T15:05:28Z,42.805,6.029,13.3049,4.60144,2470.8,2023-9-09T17:07:49Z
2023-09-09T15:08:31Z,42.805,6.029,13.3052,4.60135,2470.81,2023-9-09T17:10:52Z
2023-09-09T15:11:34Z,42.805,6.029,13.3059,4.60137,2470.824,2023-9-09T17:13:55Z
2023-09-09T15:14:37Z,42.805,6.029,13.3042,4.60142,2470.824,2023-9-09T17:16:58Z